Date String (YYYY-MM-DD hh:mm:ss) UTC,Instrument flags,absolute air pressure of the measurement (hPa),sample flow rate (lpm),inlet stack bypass flow (lpm),air temperature of the measurement (°C),ambient temperature measured by the external sensor (°C),aerosol sample conditioner tube jacket temperature (°C),OPC LED temperature (°C),internal box temperature (°C),relative humidity of the measurement (%),span deviation,mass concentration of particles derived from Lorenz-Mie calculation of OPC scattering (μg/m³),mass concentration of particles derived from Lorenz-Mie calculation of OPC scattering (μg/m³),mass concentration of particles derived from Lorenz-Mie calculation of OPC scattering (μg/m³)
DateTimeUTC,F1_M11,P_M11,Q1_M11,Q2_M11,T1_M11,T2_M11,T3_M11,T4_M11,T5_M11,U1_M11,ZSPAN_M11,X2_M11,X0_M11,X1_M11
2024-04-29 19:00:00,SystemResetWarning,0825.5,5.00,000.00,025.7,024.9,000.0,034.0,027.4,014.5,0000.0,0003.87,0010.75,0001.65
2024-04-29 19:01:00,SystemResetWarning,0825.5,5.00,000.00,025.6,024.9,000.0,034.0,027.4,014.8,0000.0,0003.80,0010.43,0001.64
2024-04-29 19:02:00,SystemResetWarning,0825.5,5.00,000.00,025.7,024.9,000.0,034.0,027.4,014.1,0000.0,0003.83,0010.42,0001.65
2024-04-29 19:03:00,SystemResetWarning,0825.6,5.00,000.00,025.7,024.9,000.0,034.0,027.4,014.4,0000.0,0003.79,0010.25,0001.66
2024-04-29 19:04:00,SystemResetWarning,0825.5,5.01,000.00,025.7,024.9,000.0,034.0,027.4,014.8,0000.0,0003.77,0010.22,0001.66
2024-04-29 19:05:00,SystemResetWarning,0825.5,5.00,000.00,025.7,024.9,000.0,034.0,027.4,014.4,0000.0,0003.75,0010.18,0001.65
2024-04-29 19:06:00,SystemResetWarning,0825.6,5.00,000.00,025.7,024.9,000.0,034.0,027.4,013.9,0000.0,0003.76,0010.65,0001.62
2024-04-29 19:07:00,SystemResetWarning,0825.5,4.99,000.00,025.7,024.9,000.0,034.0,027.4,014.1,0000.0,0003.72,0010.47,0001.59
2024-04-29 19:08:00,SystemResetWarning,0825.6,4.99,000.00,025.7,024.9,000.0,034.0,027.4,014.2,0000.0,0003.70,0009.87,0001.54
2024-04-29 19:09:00,SystemResetWarning,0825.5,5.01,000.00,025.7,024.9,000.0,034.0,027.5,014.3,0000.0,0003.67,0009.55,0001.51
2024-04-29 19:10:00,SystemResetWarning,0825.6,5.01,000.00,025.7,025.0,000.0,034.1,027.5,014.8,0000.0,0003.62,0009.52,0001.50
2024-04-29 19:11:00,SystemResetWarning,0825.6,5.00,000.00,025.7,025.0,000.0,034.1,027.5,014.8,0000.0,0003.59,0009.51,0001.50
2024-04-29 19:12:00,SystemResetWarning,0825.5,4.99,000.00,025.7,025.0,000.0,034.1,027.5,015.5,0000.0,0003.60,0009.53,0001.49
2024-04-29 19:13:00,SystemResetWarning,0825.5,4.99,000.00,025.7,025.0,000.0,034.1,027.5,014.5,0000.0,0003.59,0009.55,0001.49
2024-04-29 19:14:00,SystemResetWarning,0825.5,5.01,000.00,025.7,025.0,000.0,034.1,027.5,014.7,0000.0,0003.61,0009.77,0001.46
2024-04-29 19:15:00,SystemResetWarning,0825.5,5.01,000.00,025.7,025.0,000.0,034.1,027.5,014.5,0000.0,0003.60,0009.83,0001.45
2024-04-29 19:16:00,SystemResetWarning,0825.5,4.99,000.00,025.8,025.0,000.0,034.1,027.5,014.4,0000.0,0003.63,0010.06,0001.45
2024-04-29 19:17:00,SystemResetWarning,0825.5,5.00,000.00,025.8,025.0,000.0,034.1,027.5,015.3,0000.0,0003.62,0009.69,0001.46
2024-04-29 19:18:00,SystemResetWarning,0825.4,5.00,000.00,025.8,025.0,000.0,034.1,027.5,014.3,0000.0,0003.60,0009.33,0001.48
2024-04-29 19:19:00,SystemResetWarning,0825.4,5.00,000.00,025.8,025.0,000.0,034.1,027.6,014.4,0000.0,0003.62,0009.37,0001.50
2024-04-29 19:20:00,SystemResetWarning,0825.4,5.00,000.00,025.8,025.0,000.0,034.1,027.6,014.4,0000.0,0003.61,0009.15,0001.51
2024-04-29 19:21:00,SystemResetWarning,0825.4,5.00,000.00,025.8,025.1,000.0,034.1,027.6,014.3,0000.0,0003.63,0009.17,0001.52
2024-04-29 19:22:00,SystemResetWarning,0825.3,5.00,000.00,025.8,025.1,000.0,034.1,027.6,014.4,0000.0,0003.68,0009.36,0001.52
2024-04-29 19:23:00,SystemResetWarning,0825.4,4.99,000.00,025.8,025.1,000.0,034.2,027.6,014.2,0000.0,0003.69,0009.37,0001.52
2024-04-29 19:24:00,SystemResetWarning,0825.3,5.00,000.00,025.8,025.1,000.0,034.2,027.6,014.5,0000.0,0003.71,0009.64,0001.51
2024-04-29 19:25:00,SystemResetWarning,0825.3,5.00,000.00,025.8,025.1,000.0,034.2,027.6,014.3,0000.0,0003.64,0009.74,0001.48
2024-04-29 19:26:00,SystemResetWarning,0825.3,5.01,000.00,025.9,025.1,000.0,034.2,027.6,014.3,0000.0,0003.59,0009.84,0001.46
2024-04-29 19:27:00,SystemResetWarning,0825.2,5.01,000.00,025.9,025.1,000.0,034.2,027.6,014.3,0000.0,0003.57,0010.33,0001.47
2024-04-29 19:28:00,SystemResetWarning,0825.3,5.00,000.00,025.9,025.1,000.0,034.2,027.6,014.8,0000.0,0003.56,0010.05,0001.48
2024-04-29 19:29:00,SystemResetWarning,0825.3,4.98,000.00,025.9,025.1,000.0,034.2,027.6,014.5,0000.0,0003.59,0010.05,0001.48
2024-04-29 19:30:00,SystemResetWarning,0825.3,5.00,000.00,025.9,025.1,000.0,034.2,027.7,014.1,0000.0,0003.57,0010.04,0001.47
2024-04-29 19:31:00,SystemResetWarning,0825.2,5.01,000.00,025.9,025.2,000.0,034.2,027.7,014.3,0000.0,0003.58,0010.30,0001.46
2024-04-29 19:32:00,SystemResetWarning,0825.2,5.01,000.00,025.9,025.2,000.0,034.2,027.7,014.1,0000.0,0003.55,0010.98,0001.46
2024-04-29 19:33:00,SystemResetWarning,0825.3,5.00,000.00,025.9,025.2,000.0,034.3,027.7,014.2,0000.0,0003.52,0011.60,0001.46
2024-04-29 19:34:00,SystemResetWarning,0825.3,5.00,000.00,025.9,025.2,000.0,034.3,027.7,014.5,0000.0,0003.53,0012.04,0001.46
2024-04-29 19:35:00,SystemResetWarning,0825.3,5.00,000.00,025.9,025.2,000.0,034.3,027.7,014.7,0000.0,0003.49,0012.08,0001.46
2024-04-29 19:36:00,SystemResetWarning,0825.3,4.99,000.00,025.9,025.2,000.0,034.3,027.7,014.1,0000.0,0003.48,0011.82,0001.46
2024-04-29 19:37:00,SystemResetWarning,0825.3,5.00,000.00,026.0,025.2,000.0,034.3,027.7,013.8,0000.0,0003.48,0011.88,0001.47
2024-04-29 19:38:00,SystemResetWarning,0825.2,5.00,000.00,026.0,025.2,000.0,034.3,027.7,013.8,0000.0,0003.47,0012.48,0001.47
2024-04-29 19:39:00,SystemResetWarning,0825.3,5.00,000.00,026.0,025.2,000.0,034.3,027.7,014.0,0000.0,0003.51,0013.28,0001.48
2024-04-29 19:40:00,SystemResetWarning,0825.3,5.01,000.00,026.0,025.3,000.0,034.3,027.7,013.9,0000.0,0003.49,0013.27,0001.47
2024-04-29 19:41:00,SystemResetWarning,0825.3,5.00,000.00,026.0,025.3,000.0,034.3,027.7,014.4,0000.0,0003.45,0013.62,0001.47
2024-04-29 19:42:00,SystemResetWarning,0825.2,4.99,000.00,026.0,025.3,000.0,034.3,027.7,014.3,0000.0,0003.38,0013.25,0001.48
2024-04-29 19:43:00,SystemResetWarning,0825.2,4.99,000.00,026.0,025.3,000.0,034.3,027.8,014.6,0000.0,0003.37,0012.77,0001.48
2024-04-29 19:44:00,SystemResetWarning,0825.3,5.00,000.00,026.0,025.3,000.0,034.3,027.8,013.9,0000.0,0003.35,0012.14,0001.47
2024-04-29 19:45:00,SystemResetWarning,0825.3,5.01,000.00,026.0,025.3,000.0,034.3,027.8,014.2,0000.0,0003.31,0011.60,0001.47
2024-04-29 19:46:00,SystemResetWarning,0825.3,5.01,000.00,026.0,025.3,000.0,034.4,027.8,014.4,0000.0,0003.25,0011.03,0001.47
2024-04-29 19:47:00,SystemResetWarning,0825.3,5.00,000.00,026.0,025.3,000.0,034.4,027.8,014.2,0000.0,0003.27,0010.96,0001.48
2024-04-29 19:48:00,SystemResetWarning,0825.3,5.00,000.00,026.0,025.3,000.0,034.4,027.8,014.0,0000.0,0003.25,0010.82,0001.48
2024-04-29 19:49:00,SystemResetWarning,0825.3,4.99,000.00,026.0,025.3,000.0,034.4,027.8,014.0,0000.0,0003.28,0010.28,0001.49
2024-04-29 19:50:00,SystemResetWarning,0825.3,4.99,000.00,026.1,025.3,000.0,034.4,027.8,014.3,0000.0,0003.27,0009.64,0001.47
2024-04-29 19:51:00,SystemResetWarning,0825.3,5.01,000.00,026.1,025.3,000.0,034.4,027.8,013.8,0000.0,0003.28,0009.82,0001.48
2024-04-29 19:52:00,SystemResetWarning,0825.3,5.00,000.00,026.1,025.3,000.0,034.4,027.8,014.2,0000.0,0003.28,0010.25,0001.47
2024-04-29 19:53:00,SystemResetWarning,0825.3,5.00,000.00,026.1,025.3,000.0,034.4,027.8,014.2,0000.0,0003.35,0010.68,0001.48
2024-04-29 19:54:00,SystemResetWarning,0825.3,5.01,000.00,026.1,025.3,000.0,034.4,027.8,014.8,0000.0,0003.37,0010.54,0001.48
2024-04-29 19:55:00,SystemResetWarning,0825.3,5.00,000.00,026.1,025.3,000.0,034.4,027.8,015.3,0000.0,0003.42,0010.49,0001.49
2024-04-29 19:56:00,SystemResetWarning,0825.3,5.00,000.00,026.1,025.3,000.0,034.4,027.8,014.5,0000.0,0003.44,0010.55,0001.50
2024-04-29 19:57:00,SystemResetWarning,0825.3,5.00,000.00,026.1,025.3,000.0,034.4,027.9,014.1,0000.0,0003.49,0010.81,0001.50
2024-04-29 19:58:00,SystemResetWarning,0825.3,5.00,000.00,026.1,025.3,000.0,034.5,027.9,014.3,0000.0,0003.51,0010.88,0001.51
2024-04-29 19:59:00,SystemResetWarning,0825.3,5.00,000.00,026.1,025.3,000.0,034.5,027.9,014.8,0000.0,0003.56,0010.90,0001.53
